Regional Weather Roundup
Issued by NWS

Home | Current Version | Previous Version | Graphics & Text | Print | Product List | Glossary On
Versions: 1 2 3 4 5 6 7 8 9 10 11 12 13 14 15 16 17 18 19 20 21 22 23 24 25 26 27 28 29 30 31 32 33 34 35 36 37 38 39 40 41 42 43 44 45 46 47 48 49 50
000
ASUS43 KIND 271559
RWRIN

WEATHER ROUNDUP FOR INDIANA
NATIONAL WEATHER SERVICE INDIANAPOLIS IN
1100 AM EST SAT DEC 27 2014

NOTE: "FAIR" INDICATES FEW OR NO CLOUDS BELOW 12,000 FEET WITH NO
SIGNIFICANT WEATHER AND/OR OBSTRUCTIONS TO VISIBILITY.

* - STATION DOES NOT REPORT WEATHER SUCH AS PRECIPITATION OR FOG.

+ - STATION NOT QUALITY CONTROLLED BY THE NATIONAL WEATHER SERVICE.
    USE DATA WITH CAUTION...ESPECIALLY DEWPOINT AND RELATIVE
    HUMIDITY OBSERVATIONS.

INZ001>003-010>013-019-020-271700-
NORTHWEST INDIANA

CITY           SKY/WX    TMP DP  RH WIND       PRES   REMARKS
GARY /AIRPORT/ CLOUDY    48  45  87 S13G29    30.00R FOG
KNOX *+        CLOUDY    46  42  87 S16       30.02F
VALPARAISO     CLOUDY    46  45  93 S13G23    30.01F FOG

$$

LMZ046-743>745-271700-
SOUTHERN LAKE MICHIGAN

STATION/POSITION TIME  TEMP WIND        PRES
                       AIR  DIR/SP/G
                 (UTC) (F)  (DEG/KT/KT) (MB)
MICHIGAN CITY    1500   46  180/ 16/ 19   N/A

$$

INZ004-005-014>016-021>024-271700-
NORTH CENTRAL INDIANA

CITY           SKY/WX    TMP DP  RH WIND       PRES   REMARKS
GOSHEN         CLOUDY    46  44  93 S16       30.03F
SOUTH BEND     CLOUDY    47  45  93 S16       30.02F FOG
WARSAW +       LGT RAIN  45  43  93 S8        30.05F

$$

INZ006>009-017-018-025>027-271700-
NORTHEAST INDIANA

CITY           SKY/WX    TMP DP  RH WIND       PRES   REMARKS
ANGOLA *+      CLOUDY    43  43 100 SW12      30.04F
FORT WAYNE     CLOUDY    46  43  89 SW14G24   30.09F

$$

INZ028-029-035-036-043>045-051>053-271700-
WEST CENTRAL INDIANA

CITY           SKY/WX    TMP DP  RH WIND       PRES   REMARKS
GREENCASTLE +  CLOUDY    43  41  93 S7        30.13S FOG
LAFAYETTE      CLOUDY    45  44  97 S8        30.08S
TERRE HAUTE    CLOUDY    46  44  93 S12       30.14R FOG

$$

INZ030>032-037>040-046>048-054>057-064-065-271700-
CENTRAL INDIANA

CITY           SKY/WX    TMP DP  RH WIND       PRES   REMARKS
ANDERSON       CLOUDY    45  43  93 S12G23    30.14S FOG
CP ATTERBURY + CLOUDY    43  43 100 MISG      30.18R FOG
COLUMBUS       CLOUDY    43  41  93 S12       30.18S FOG
INDIANAPOLIS   CLOUDY    44  43  96 S12       30.13S FOG
-EAGLE CREEK   CLOUDY    44  43  96 S7        30.12F FOG
KOKOMO *+      CLOUDY    45  43  93 S15       30.09F
MT COMFORT *+  CLOUDY    43 N/A N/A S13       30.14S
SHELBYVILLE    CLOUDY    45  42  89 S15       30.16R FOG

$$

INZ033-034-041-042-049-050-058-059-271700-
EAST CENTRAL INDIANA

CITY           SKY/WX    TMP DP  RH WIND       PRES   REMARKS
MUNCIE         CLOUDY    45  42  89 S14G22    30.11F

$$

INZ060-061-067>069-081>083-085>088-271700-
SOUTHWEST INDIANA

CITY           SKY/WX    TMP DP  RH WIND       PRES   REMARKS
EVANSVILLE     CLOUDY    49  45  86 S8        30.20R
HUNTINGBURG *+ CLOUDY    46  43  87 S12       30.20S

$$

INZ062-063-066-070>080-084-089>092-271700-
SOUTH CENTRAL AND SOUTHEAST INDIANA

CITY           SKY/WX    TMP DP  RH WIND       PRES   REMARKS
BLOOMINGTON    CLOUDY    46  44  93 S13       30.16S FOG

$$



USA.gov is the U.S. government's official web portal to all federal, state and local government web resources and services.